TimeCST,TemperatureF,Dew PointF,Humidity,Sea Level PressureIn,VisibilityMPH,Wind Direction,Wind SpeedMPH,Gust SpeedMPH,PrecipitationIn,Events,Conditions,WindDirDegrees,DateUTC
12:15 AM,60.8,55.4,82,30.21,9.0,Calm,Calm,-,N/A,,Clear,0,2005-01-01 06:15:00
12:55 AM,59.0,55.4,88,30.21,7.0,Calm,Calm,-,N/A,,Mostly Cloudy,0,2005-01-01 06:55:00
1:15 AM,59.0,55.4,88,30.21,7.0,Calm,Calm,-,N/A,,Mostly Cloudy,0,2005-01-01 07:15:00
1:35 AM,59.0,55.4,88,30.21,5.0,Calm,Calm,-,N/A,,Overcast,0,2005-01-01 07:35:00
1:55 AM,59.0,55.4,88,30.21,5.0,SSE,3.5,-,N/A,,Overcast,150,2005-01-01 07:55:00
2:15 AM,60.8,57.2,88,30.21,10.0,SE,3.5,-,N/A,,Overcast,140,2005-01-01 08:15:00
2:35 AM,60.8,57.2,88,30.21,10.0,Calm,Calm,-,N/A,,Overcast,0,2005-01-01 08:35:00
2:55 AM,60.8,57.2,88,30.22,5.0,SSE,3.5,-,0.01,,Overcast,160,2005-01-01 08:55:00
3:15 AM,60.8,57.2,88,30.22,9.0,Calm,Calm,-,N/A,,Mostly Cloudy,0,2005-01-01 09:15:00
3:35 AM,60.8,57.2,88,30.22,8.0,South,4.6,-,N/A,,Mostly Cloudy,170,2005-01-01 09:35:00
3:55 AM,60.8,57.2,88,30.22,10.0,SSE,4.6,-,N/A,,Overcast,160,2005-01-01 09:55:00
4:15 AM,62.6,57.2,82,30.22,10.0,SSE,5.8,-,N/A,,Overcast,160,2005-01-01 10:15:00
4:35 AM,62.6,57.2,82,30.22,10.0,SSE,4.6,-,N/A,,Overcast,150,2005-01-01 10:35:00
4:55 AM,62.6,57.2,82,30.22,10.0,SSE,6.9,-,N/A,,Overcast,150,2005-01-01 10:55:00
5:15 AM,62.6,57.2,82,30.22,10.0,SSE,8.1,16.1,N/A,,Overcast,150,2005-01-01 11:15:00
5:35 AM,62.6,57.2,82,30.22,10.0,SSE,4.6,-,N/A,,Overcast,160,2005-01-01 11:35:00
5:55 AM,62.6,57.2,82,30.23,10.0,SSE,4.6,-,N/A,,Overcast,150,2005-01-01 11:55:00
6:15 AM,62.6,57.2,82,30.23,10.0,SSE,4.6,-,N/A,,Mostly Cloudy,150,2005-01-01 12:15:00
6:35 AM,60.8,55.4,82,30.24,10.0,SSE,5.8,-,N/A,,Mostly Cloudy,150,2005-01-01 12:35:00
6:55 AM,60.8,55.4,82,30.24,10.0,SE,4.6,-,N/A,,Overcast,140,2005-01-01 12:55:00
7:15 AM,60.8,55.4,82,30.24,10.0,SSE,4.6,-,N/A,,Mostly Cloudy,150,2005-01-01 13:15:00
7:35 AM,60.8,55.4,82,30.24,10.0,Calm,Calm,-,N/A,,Scattered Clouds,0,2005-01-01 13:35:00
7:55 AM,60.8,55.4,82,30.25,10.0,SE,3.5,-,N/A,,Partly Cloudy,140,2005-01-01 13:55:00
8:15 AM,60.8,55.4,82,30.26,10.0,Calm,Calm,-,N/A,,Scattered Clouds,0,2005-01-01 14:15:00
8:35 AM,60.8,55.4,82,30.25,10.0,Calm,Calm,-,N/A,,Scattered Clouds,0,2005-01-01 14:35:00
8:55 AM,62.6,55.4,77,30.26,10.0,Calm,Calm,-,N/A,,Partly Cloudy,0,2005-01-01 14:55:00
9:15 AM,62.6,55.4,77,30.26,10.0,SSE,4.6,-,N/A,,Partly Cloudy,150,2005-01-01 15:15:00
9:35 AM,62.6,55.4,77,30.26,10.0,SSE,11.5,16.1,N/A,,Mostly Cloudy,160,2005-01-01 15:35:00
9:55 AM,62.6,55.4,77,30.27,10.0,South,6.9,16.1,N/A,,Mostly Cloudy,170,2005-01-01 15:55:00
10:15 AM,62.6,55.4,77,30.27,10.0,South,10.4,16.1,N/A,,Mostly Cloudy,170,2005-01-01 16:15:00
10:35 AM,62.6,55.4,77,30.27,10.0,South,5.8,-,N/A,,Partly Cloudy,170,2005-01-01 16:35:00
11:15 AM,64.4,55.4,73,30.26,10.0,SSE,9.2,-,N/A,,Clear,150,2005-01-01 17:15:00
11:35 AM,64.4,55.4,73,30.25,10.0,SSE,6.9,-,N/A,,Scattered Clouds,150,2005-01-01 17:35:00
12:15 PM,66.2,55.4,68,30.22,10.0,South,9.2,-,N/A,,Mostly Cloudy,170,2005-01-01 18:15:00
12:35 PM,66.2,55.4,68,30.22,10.0,SSE,8.1,-,N/A,,Mostly Cloudy,150,2005-01-01 18:35:00
12:55 PM,66.2,55.4,68,30.21,10.0,SSE,5.8,-,N/A,,Overcast,150,2005-01-01 18:55:00
1:15 PM,66.2,55.4,68,30.20,10.0,SSE,4.6,-,N/A,,Mostly Cloudy,160,2005-01-01 19:15:00
1:35 PM,66.2,57.2,73,30.19,10.0,South,4.6,-,N/A,,Overcast,180,2005-01-01 19:35:00
1:55 PM,66.2,57.2,73,30.19,10.0,SSE,11.5,16.1,N/A,,Mostly Cloudy,160,2005-01-01 19:55:00
2:15 PM,66.2,57.2,73,30.19,10.0,SSE,10.4,-,N/A,,Mostly Cloudy,160,2005-01-01 20:15:00
2:35 PM,66.2,57.2,73,30.18,10.0,SSE,10.4,17.3,N/A,,Mostly Cloudy,160,2005-01-01 20:35:00
2:55 PM,66.2,57.2,73,30.19,10.0,South,8.1,17.3,N/A,,Mostly Cloudy,170,2005-01-01 20:55:00
3:15 PM,66.2,57.2,73,30.19,10.0,SSE,9.2,-,N/A,,Overcast,160,2005-01-01 21:15:00
3:35 PM,64.4,57.2,77,30.19,10.0,SSE,8.1,-,N/A,,Overcast,150,2005-01-01 21:35:00
3:55 PM,64.4,57.2,77,30.19,10.0,SSE,8.1,-,N/A,,Overcast,160,2005-01-01 21:55:00
4:15 PM,64.4,55.4,73,30.18,10.0,SSE,9.2,16.1,N/A,,Overcast,160,2005-01-01 22:15:00
4:35 PM,64.4,55.4,73,30.18,10.0,SE,5.8,-,N/A,,Overcast,130,2005-01-01 22:35:00
4:55 PM,64.4,55.4,73,30.19,10.0,SSE,6.9,-,N/A,,Overcast,150,2005-01-01 22:55:00
5:15 PM,62.6,55.4,77,30.19,10.0,SE,6.9,17.3,N/A,,Overcast,140,2005-01-01 23:15:00
5:35 PM,62.6,55.4,77,30.20,10.0,SSE,8.1,-,N/A,,Overcast,160,2005-01-01 23:35:00
5:55 PM,62.6,55.4,77,30.21,10.0,SSE,4.6,-,N/A,,Overcast,150,2005-01-01 23:55:00
6:15 PM,62.6,55.4,77,30.20,10.0,SSE,8.1,-,N/A,,Overcast,150,2005-01-02 00:15:00
6:35 PM,62.6,55.4,77,30.20,10.0,SSE,4.6,-,N/A,,Overcast,150,2005-01-02 00:35:00
6:55 PM,60.8,55.4,82,30.20,10.0,Calm,Calm,-,N/A,,Overcast,0,2005-01-02 00:55:00
7:15 PM,60.8,55.4,82,30.20,10.0,ESE,3.5,-,N/A,,Overcast,120,2005-01-02 01:15:00
7:35 PM,60.8,55.4,82,30.20,10.0,ESE,4.6,-,N/A,,Overcast,120,2005-01-02 01:35:00
7:55 PM,60.8,55.4,82,30.21,10.0,ESE,3.5,-,N/A,,Overcast,120,2005-01-02 01:55:00
8:15 PM,60.8,55.4,82,30.21,10.0,ESE,4.6,-,N/A,,Overcast,120,2005-01-02 02:15:00
8:35 PM,60.8,55.4,82,30.21,10.0,ESE,3.5,-,N/A,,Overcast,110,2005-01-02 02:35:00
8:55 PM,60.8,55.4,82,30.21,10.0,ESE,4.6,-,N/A,,Overcast,120,2005-01-02 02:55:00
9:15 PM,60.8,55.4,82,30.21,10.0,ESE,3.5,-,N/A,,Overcast,120,2005-01-02 03:15:00
9:35 PM,60.8,55.4,82,30.20,10.0,SSE,3.5,-,N/A,,Overcast,160,2005-01-02 03:35:00
9:55 PM,60.8,55.4,82,30.21,10.0,SSE,4.6,-,N/A,,Overcast,150,2005-01-02 03:55:00
10:15 PM,60.8,55.4,82,30.21,10.0,Calm,Calm,-,N/A,,Overcast,0,2005-01-02 04:15:00
10:35 PM,60.8,55.4,82,30.22,10.0,South,3.5,-,N/A,,Overcast,190,2005-01-02 04:35:00
10:55 PM,60.8,55.4,82,30.22,10.0,SSE,3.5,-,N/A,,Overcast,160,2005-01-02 04:55:00
11:15 PM,60.8,55.4,82,30.21,10.0,SSE,3.5,-,N/A,,Overcast,160,2005-01-02 05:15:00
11:55 PM,60.8,55.4,82,30.21,10.0,South,3.5,-,N/A,,Overcast,180,2005-01-02 05:55:00